Regional Weather Roundup
Issued by NWS

Home | Current Version | Previous Version | Graphics & Text | Print | Product List | Glossary On
Versions: 1 2 3 4 5 6 7 8 9 10 11 12 13 14 15 16 17 18 19 20 21 22 23 24 25 26 27
000
ASUS45 KBOU 171607
RWRCO

WEATHER ROUNDUP FOR COLORADO
NATIONAL WEATHER SERVICE DENVER/BOULDER CO
1000 AM MDT THU AUG 17 2017

NOTE: "FAIR" INDICATES FEW OR NO CLOUDS BELOW 12000 FEET WITH NO
SIGNIFICANT WEATHER AND/OR OBSTRUCTIONS TO VISIBILITY.

COZ001>005-013-030-031-171700-
...NORTHWEST COLORADO...

CITY           SKY/WX    TMP DP  RH WIND       PRES   REMARKS
CRAIG          FAIR      68  39  34 VRB3      30.28F
HAYDEN         FAIR      66  37  34 E6        30.32S
MEEKER         FAIR      65  41  41 SW3       30.29F
RABBIT EARS PA FAIR      52  36  54 W6        30.54R
STEAMBOAT SPGS NOT AVBL
WALDEN         FAIR      57  43  58 CALM      30.39S
$$

COZ006>008-011-171700-
...WEST CENTRAL VALLEYS...

CITY           SKY/WX    TMP DP  RH WIND       PRES   REMARKS
GRAND JUNCTION FAIR      72  38  29 S7        30.20S
MONTROSE       FAIR      69  37  30 VRB3      30.27S
EAGLE          FAIR      60  38  43 CALM      30.35F
RIFLE          FAIR      67  41  38 NW3       30.26S
DELTA          FAIR      70  37  30 CALM      30.25S
NUCLA          FAIR      70  27  19 CALM      30.31S
$$

COZ017>023-064>068-171700-
...SOUTHWEST COLORADO...

CITY           SKY/WX    TMP DP  RH WIND       PRES   REMARKS
DURANGO        PTSUNNY   67  32  27 CALM      30.33S
CORTEZ         FAIR      71  35  26 CALM      30.28S
PAGOSA SPRINGS FAIR      67  28  23 CALM      30.40S
TELLURIDE      FAIR      64  30  28 NE3       30.50R
WOLF CREEK PAS FAIR      50  27  40 SW8       30.70S
$$

COZ009-010-012-014-032>034-037-058>063-171700-
...CENTRAL COLORADO...

CITY           SKY/WX    TMP DP  RH WIND       PRES   REMARKS
ASPEN          FAIR      64  36  35 VRB5      30.36F
BUENA VISTA    FAIR      61  43  52 CALM      30.40F
COPPER MTN     PTSUNNY   54  32  43 NW9       30.64R
BERTHOUD PASS  PTSUNNY   41  36  81 NW13G33   30.64R
COTTONWOOD PAS FAIR      59  39  47 CALM      30.51S
GUNNISON       FAIR      56  35  45 CALM      30.42F
KREMMLING      FAIR      61  43  51 CALM      30.39F
LEADVILLE      FAIR      55  34  45 CALM      30.49S
MONARCH PASS   FAIR      48  28  46 SW13G21   30.74S
SALIDA         FAIR      62  43  50 CALM      30.45S
SUNLIGHT       FAIR      54  34  47 W6        30.60R
WILKERSON PASS CLOUDY    50  37  62 W6        30.62R
$$

COZ069>075-171700-
...SAN LUIS VALLEY/SANGRE DE CRISTO MOUNTAINS...

CITY           SKY/WX    TMP DP  RH WIND       PRES   REMARKS
ALAMOSA        FAIR      62  45  53 CALM      30.38S
DEL NORTE      FAIR      64  34  33 CALM      30.40F
LA VETA PASS   NOT AVBL
SAGUACHE       FAIR      64  36  34 CALM      30.40S
$$

COZ035-036-038>040-171700-
...NORTHERN COLORADO FRONT RANGE...

CITY           SKY/WX    TMP DP  RH WIND       PRES   REMARKS
DENVER INTL AP FAIR      78  42  27 SW10      30.17R
DMNS CITY PARK   N/A     76  45  33 S7        30.17S
AURORA         MOSUNNY   73  47  39 SW9       30.19S
FRONT RANGE AP MOSUNNY   79  46  31 SW9       30.19R
ERIE MUNI ARPT FAIR      73  43  34 CALM      30.20F
BOULDER MUN AP FAIR      72  48  43 SE3       30.16S
CENTENNIAL     FAIR      75  45  34 SW14      30.21R
BROOMFIELD     PTSUNNY   73  45  35 SE3       30.20R
FORT COLLINS   FAIR      68  51  54 VRB3      30.16S
LONGMONT       FAIR      76  48  37 CALM      30.17S
$$

COZ041-046-047-076>085-087-088-171700-
...PIKES PEAK/PALMER DIVIDE AND SOUTHERN FOOTHILLS...

CITY           SKY/WX    TMP DP  RH WIND       PRES   REMARKS
COLO. SPRINGS  FAIR      69  50  50 VRB3      30.26S
A. F. ACADEMY  FAIR      69  48  46 CALM      30.26F
SCHRIEVER AFB  FAIR      69  46  44 SW8       30.26F
CHEYENNE MTN   FAIR      64  50  61 N6        30.24S
ELLICOTT       FAIR     N/A N/A N/A SW6       30.24F
FALCON         FAIR      68  47  45 SW7       30.30F
FORT CARSON    FAIR      68  52  55 CALM      30.23S
LIMON          FAIR      72  52  49 S13       30.21S
MONUMENT HILL  FAIR      68  45  42 W9        30.31S
CANON CITY     SUNNY     75  52  43 W17       30.20S
WALSENBURG     FAIR      73  48  40 CALM      30.26F
TRINIDAD       FAIR      72  50  45 CALM      30.25S
$$

COZ042>045-048>051-090-091-171700-
...NORTHEAST COLORADO...

CITY           SKY/WX    TMP DP  RH WIND       PRES   REMARKS
GREELEY ARPT   NOT AVBL
AKRON          FAIR      76  51  41 SW14      30.14S
BURLINGTON     FAIR      74  60  61 S14       30.16F
WRAY           NOT AVBL
YUMA           FAIR      72  43  35 S16       30.11F
STERLING       FAIR      72  54  53 SW12      30.09S
HOLYOKE        FAIR      79  61  53 SW13      30.10F
FORT MORGAN    FAIR      73  50  43 SW8       30.13F
$$

COZ086-089-092>099-171700-
...SOUTHEAST COLORADO...

CITY           SKY/WX    TMP DP  RH WIND       PRES   REMARKS
PUEBLO         FAIR      76  51  41 SW6       30.17F
LA JUNTA       FAIR      77  56  48 S10       30.15F
LAMAR          FAIR      78  57  48 S14       30.12F
SPRINGFIELD      N/A     74  59  59 S10       30.19S
$$




USA.gov is the U.S. government's official web portal to all federal, state and local government web resources and services.